Location: Kiriwakapapa
(40.8167°S, 175.6167°E)
Time: 08:59:01
(UTC+00:00)

Daily predictions for brighter satellites

Satellite Brightness Start Highest point End
(mag) Time Altitude Azimuth Time Altitude Azimuth Time Altitude Azimuth
BREEZE-M DEB (TANK) 4.4 16:28:28 49° N 16:29:53 57° NE 16:50:08 10° ESE
Atlas Centaur 2 3.9 16:37:52 27° N 16:37:52 27° N 16:42:37 10° NE
Cosmos 2322 Rocket 3.0 16:39:40 45° NE 16:39:40 45° NE 16:43:36 10° NNE
USA 215 4.0 16:38:24 10° SE 16:43:07 40° S 16:43:07 40° S
SL-16 R/B 3.7 16:42:43 10° SSE 16:48:42 42° E 16:54:35 10° N
Cosmos 540 Rocket 4.2 16:53:07 23° NNE 16:56:00 50° ENE 17:01:00 10° SSE
Cosmos 2333 4.1 17:00:26 80° E 17:00:26 80° E 17:05:53 10° NNE
USA 267 3.1 17:08:03 10° NE 17:14:38 86° NW 17:16:29 52° SW
Cosmos 1763 Rocket 3.3 17:16:10 56° NNW 17:17:19 89° E 17:22:34 10° SSE
Cosmos 2333 Rocket 3.9 17:20:48 18° NNW 17:20:48 18° NNW 17:22:28 10° NNW
Cosmos 2219 Rocket 2.0 17:24:04 51° SSW 17:25:35 85° WNW 17:31:11 10° NNE
SL-16 R/B 4.2 17:30:10 13° NNW 17:30:10 13° NNW 17:30:56 10° NNW
Cosmos 1864 Rocket 4.4 17:24:06 10° N 17:30:19 83° W 17:36:43 10° S
SeaSat 1 2.3 17:25:22 10° SSE 17:30:21 88° WSW 17:35:13 10° NNW
Cosmos 2360 Rocket 2.5 17:30:59 46° WNW 17:30:59 46° WNW 17:36:00 10° N
Cosmos 1892 Rocket 4.4 17:33:27 35° NNW 17:33:27 35° NNW 17:36:10 10° N
BlueWalker 3 4.4 17:34:21 11° SSE 17:34:21 11° SSE 17:35:04 10° SSE
Cosmos 2297 Rocket 4.3 17:31:28 10° NNE 17:36:13 28° ENE 17:41:01 10° SE
BREEZE-M DEB (TANK) 3.6 17:25:49 10° NW 17:36:49 62° NNE 17:40:13 10° ESE
Cosmos 1777 Rocket 4.0 17:36:25 52° WSW 17:37:15 58° WNW 17:42:26 10° N
Cosmos 468 Rocket 4.2 17:36:55 10° N 17:42:03 72° ENE 17:47:20 10° SSE
USA 281 3.9 17:37:46 10° SSE 17:44:17 56° ENE 17:50:43 10° N
Cosmos 990 Rocket 3.9 17:42:50 24° SSW 17:46:00 89° ESE 17:51:09 10° NNE
CZ-4 R/B 4.3 17:42:13 10° N 17:46:32 40° WNW 17:46:32 40° WNW
Tsikada Rocket 4.3 17:40:38 10° S 17:47:04 69° E 17:53:19 10° NNE
Cosmos 1484 Rocket 2.4 17:46:33 10° NNE 17:49:53 77° ESE 17:51:02 39° S
Lacrosse 4 Rocket 1.1 17:50:15 50° WNW 17:51:03 63° WSW 17:55:00 10° SSE
CBERS-1 4.0 17:46:07 10° NNE 17:51:15 84° ESE 17:56:28 10° SSW
Cosmos 2084 4.5 17:49:56 22° S 17:52:07 40° SE 17:56:01 10° ENE
Meteor 1-28 Rocket 3.0 17:49:15 10° SSE 17:52:32 71° E 17:55:47 10° N
Cosmos 1758 Rocket 3.7 17:51:00 10° S 17:55:22 72° E 17:59:42 10° NNE
RESURS DK-1 2.5 17:56:27 45° W 17:56:46 46° WNW 18:00:33 10° N
YAOGAN 1 4.5 17:56:43 10° NE 18:00:24 28° ESE 18:04:07 10° S
CZ-3 R/B 3.3 17:53:25 10° NW 18:01:43 25° N 18:05:57 10° NE
Cosmos 1933 3.1 18:00:03 10° N 18:03:52 86° W 18:07:45 10° S
Resurs 01 Rocket 4.2 18:01:20 10° ENE 18:04:26 19° ESE 18:07:33 10° SSE
ARIANE 5 R/B 3.2 18:00:45 10° NNE 18:05:40 54° ESE 18:10:44 10° S
SL-08 R/B 4.4 18:00:08 10° NNW 18:06:09 61° W 18:12:18 10° S
Aureole 1 Rocket 2.0 18:06:24 32° SSW 18:07:40 84° ESE 18:10:45 10° NNE
CORIOLIS 4.2 18:05:32 10° N 18:10:45 54° W 18:16:04 10° SSW
Cosmos 1602 Rocket 4.0 18:08:45 10° S 18:13:06 61° E 18:17:22 10° NNE
Cosmos 2016 Rocket 4.3 18:08:41 10° NNW 18:14:47 46° WSW 18:20:59 10° S
Aureole 3 Rocket 2.2 18:11:52 10° NNW 18:14:56 67° W 18:18:30 10° S
Cosmos 1805 3.3 18:12:57 10° S 18:16:15 61° E 18:19:30 10° NNE
SMAP 3.4 18:13:43 10° N 18:18:11 44° W 18:22:37 11° SSW
COSMOS 2428 2.8 18:13:28 10° SSW 18:19:17 84° ESE 18:25:03 10° NNE
Cosmos 841 Rocket 3.6 18:14:51 10° NNW 18:19:58 76° ENE 18:25:09 10° SSE
Cosmos 1725 Rocket 4.5 18:14:40 10° NW 18:20:30 38° WSW 18:26:25 10° S
Cosmos 2322 Rocket 3.7 18:21:32 16° W 18:21:32 16° W 18:24:31 10° NW
Cosmos 1626 Rocket 3.7 18:17:54 10° SSW 18:22:07 50° W 18:26:18 10° NNW
AQUARIUS 4.1 18:19:03 10° N 18:23:29 76° WNW 18:27:58 10° SSW
SJ-12 3.9 18:20:34 10° NNE 18:24:21 73° ESE 18:28:12 10° S
Atlas Centaur 2 4.4 18:20:15 10° WNW 18:24:39 19° NNW 18:29:31 10° NNE
USA 215 4.5 18:21:35 10° SE 18:26:38 24° SSW 18:30:27 15° SW
Okean 1 3.5 18:25:51 10° N 18:29:20 63° E 18:32:54 10° SSE
UNK 3.8 18:25:53 10° S 18:30:23 53° WSW 18:34:48 10° NNW
SL-16 R/B 3.2 18:26:32 10° S 18:32:04 33° WSW 18:37:32 10° NW
Meteor 1-5 Rocket 4.3 18:29:47 10° S 18:35:10 77° E 18:40:35 10° NNE
Cosmos 1606 Rocket 3.8 18:32:38 10° N 18:37:06 79° E 18:41:37 10° S
Cosmos 2322 3.8 18:33:17 10° SSW 18:38:58 61° WNW 18:44:36 10° N
COSMO-SKYMED 1 3.6 18:36:10 10° SSE 18:40:13 48° E 18:44:12 10° N
Thor Agena Rocket 3.6 18:39:05 10° N 18:44:19 67° WNW 18:49:35 10° SSW
CZ-4 R/B 4.3 18:41:55 10° N 18:45:51 63° W 18:49:50 10° SSW
Cosmos 2237 Rocket 2.8 18:40:22 10° SSW 18:46:02 58° ESE 18:51:39 10° NE
Cosmos 2151 3.7 18:44:18 10° SSW 18:48:03 32° W 18:51:47 10° NNW
Cosmos 2227 Rocket 3.5 18:43:58 10° N 18:49:19 46° ENE 18:54:44 10° SE
Resurs 1-3 3.6 18:46:40 10° N 18:50:57 62° W 18:55:18 10° SSW
NOSS 0 Rocket 4.0 18:45:57 10° SSW 18:52:14 74° WNW 18:58:27 10° NNE
Cosmos 1980 4.0 18:47:12 10° SSW 18:52:55 71° ESE 18:58:34 10° NNE
SL-16 R/B 4.4 18:49:02 10° S 18:53:14 20° SE 18:57:24 10° E
SPOT 1/Viking Rocket 4.2 18:48:53 10° NNW 18:53:40 37° W 18:58:33 10° SSW
Cosmos 1707 1.9 18:55:20 10° N 18:58:06 81° E 19:00:56 10° S
ATLAS 2AS CENTAUR R/B 4.3 18:57:55 10° SSW 19:04:12 28° SE 19:10:24 10° E
SeaSat 1 4.1 19:04:23 10° SSW 19:07:01 15° SW 19:09:37 10° WSW
Cosmos 1076 Rocket 3.6 19:02:46 10° S 19:07:11 88° ESE 19:11:32 10° N
COBE Rocket 4.0 19:02:17 10° S 19:07:22 82° WSW 19:12:29 10° NNW
Cosmos 2219 Rocket 4.1 19:08:03 10° W 19:08:32 10° W 19:09:01 10° W
Cosmos 2098 Rocket 4.0 19:04:11 10° NNW 19:09:21 45° WSW 19:14:50 10° S
